Time,TemperatureF,DewpointF,PressureIn,WindDirection,WindDirectionDegrees,WindSpeedMPH,WindSpeedGustMPH,Humidity,HourlyPrecipIn,Conditions,Clouds,dailyrainin,SoftwareType,DateUTC
2013-02-24 00:01:00,33.0,30.0,-100.00,ESE,105,5.0,9.0,86,-99.99,,,-99.99,,2013-02-24 09:01:00,
2013-02-24 00:11:00,33.0,30.0,-100.00,ESE,105,5.0,9.0,86,-99.99,,,-99.99,,2013-02-24 09:11:00,
2013-02-24 00:21:00,34.0,30.0,-100.00,ESE,115,2.0,10.0,86,-99.99,,,-99.99,,2013-02-24 09:21:00,
2013-02-24 00:31:00,34.0,30.0,-100.00,ESE,115,2.0,10.0,86,-99.99,,,-99.99,,2013-02-24 09:31:00,
2013-02-24 00:41:00,34.0,30.0,-100.00,ESE,115,2.0,10.0,86,-99.99,,,-99.99,,2013-02-24 09:41:00,
2013-02-24 00:51:00,33.0,30.0,-100.00,WSW,250,0.0,1.0,87,-99.99,,,-99.99,,2013-02-24 09:51:00,
2013-02-24 01:01:00,33.0,30.0,-100.00,WSW,250,0.0,1.0,87,-99.99,,,-99.99,,2013-02-24 10:01:00,
2013-02-24 01:11:00,33.0,30.0,-100.00,WSW,250,0.0,1.0,87,-99.99,,,-99.99,,2013-02-24 10:11:00,
2013-02-24 01:21:00,33.0,30.0,-100.00,WNW,300,0.0,1.0,87,-99.99,,,-99.99,,2013-02-24 10:21:00,
2013-02-24 01:31:00,33.0,30.0,-100.00,WNW,300,0.0,1.0,87,-99.99,,,-99.99,,2013-02-24 10:31:00,
2013-02-24 01:41:00,33.0,30.0,-100.00,WNW,300,0.0,1.0,87,-99.99,,,-99.99,,2013-02-24 10:41:00,
2013-02-24 01:51:00,33.0,30.0,-100.00,NNE,15,0.0,0.0,87,-99.99,,,-99.99,,2013-02-24 10:51:00,
2013-02-24 02:01:00,33.0,30.0,-100.00,NNE,15,0.0,0.0,87,-99.99,,,-99.99,,2013-02-24 11:01:00,
2013-02-24 02:11:00,33.0,30.0,-100.00,NNE,15,0.0,0.0,87,-99.99,,,-99.99,,2013-02-24 11:11:00,
2013-02-24 02:21:00,33.0,30.0,-100.00,East,90,2.0,7.0,88,-99.99,,,-99.99,,2013-02-24 11:21:00,
2013-02-24 02:32:00,33.0,30.0,-100.00,East,90,2.0,7.0,88,-99.99,,,-99.99,,2013-02-24 11:32:00,
2013-02-24 02:41:00,33.0,30.0,-100.00,East,90,2.0,7.0,88,-99.99,,,-99.99,,2013-02-24 11:41:00,
2013-02-24 02:52:00,33.0,30.0,-100.00,SE,130,2.0,6.0,87,-99.99,,,-99.99,,2013-02-24 11:52:00,
2013-02-24 03:01:00,33.0,30.0,-100.00,SE,130,2.0,6.0,87,-99.99,,,-99.99,,2013-02-24 12:01:00,
2013-02-24 03:11:00,33.0,30.0,-100.00,SE,130,2.0,6.0,87,-99.99,,,-99.99,,2013-02-24 12:11:00,
2013-02-24 03:21:00,34.0,30.0,-100.00,ESE,115,2.0,9.0,86,-99.99,,,-99.99,,2013-02-24 12:21:00,
2013-02-24 03:32:00,34.0,30.0,-100.00,ESE,115,2.0,9.0,86,-99.99,,,-99.99,,2013-02-24 12:32:00,
2013-02-24 03:46:00,34.0,30.0,-100.00,ESE,115,2.0,9.0,86,-99.99,,,-99.99,,2013-02-24 12:46:00,
2013-02-24 03:55:00,34.0,31.0,-100.00,SE,130,3.0,4.0,87,-99.99,,,-99.99,,2013-02-24 12:55:00,
2013-02-24 04:04:00,34.0,31.0,-100.00,SE,130,3.0,4.0,87,-99.99,,,-99.99,,2013-02-24 13:04:00,
2013-02-24 04:15:00,34.0,31.0,-100.00,SE,130,3.0,4.0,87,-99.99,,,-99.99,,2013-02-24 13:15:00,
2013-02-24 04:35:00,34.0,31.0,-100.00,ESE,120,2.0,6.0,87,-99.99,,,-99.99,,2013-02-24 13:35:00,
2013-02-24 04:41:00,34.0,31.0,-100.00,SE,135,3.0,7.0,87,-99.99,,,-99.99,,2013-02-24 13:41:00,
2013-02-24 04:45:00,34.0,31.0,-100.00,ESE,120,2.0,6.0,87,-99.99,,,-99.99,,2013-02-24 13:45:00,
2013-02-24 04:54:00,34.0,31.0,-100.00,ESE,110,4.0,10.0,87,-99.99,,,-99.99,,2013-02-24 13:54:00,
2013-02-24 05:02:00,34.0,31.0,-100.00,ESE,110,4.0,10.0,87,-99.99,,,-99.99,,2013-02-24 14:02:00,
2013-02-24 05:12:00,34.0,31.0,-100.00,ESE,110,4.0,10.0,87,-99.99,,,-99.99,,2013-02-24 14:12:00,
2013-02-24 05:22:00,34.0,31.0,-100.00,SE,135,3.0,7.0,87,-99.99,,,-99.99,,2013-02-24 14:22:00,
2013-02-24 05:32:00,34.0,31.0,-100.00,SE,135,3.0,7.0,87,-99.99,,,-99.99,,2013-02-24 14:32:00,
2013-02-24 05:54:00,34.0,31.0,-100.00,ESE,115,6.0,11.0,87,-99.99,,,-99.99,,2013-02-24 14:54:00,
2013-02-24 06:02:00,34.0,31.0,-100.00,ESE,115,6.0,11.0,87,-99.99,,,-99.99,,2013-02-24 15:02:00,
2013-02-24 06:12:00,34.0,31.0,-100.00,ESE,115,6.0,11.0,87,-99.99,,,-99.99,,2013-02-24 15:12:00,
2013-02-24 06:22:00,34.0,31.0,-100.00,ESE,120,4.0,12.0,86,-99.99,,,-99.99,,2013-02-24 15:22:00,
2013-02-24 06:31:00,34.0,31.0,-100.00,ESE,120,4.0,12.0,86,-99.99,,,-99.99,,2013-02-24 15:31:00,
2013-02-24 06:42:00,34.0,31.0,-100.00,ESE,120,4.0,12.0,86,-99.99,,,-99.99,,2013-02-24 15:42:00,
2013-02-24 06:52:00,34.0,31.0,-100.00,ESE,105,7.0,16.0,86,-99.99,,,-99.99,,2013-02-24 15:52:00,
2013-02-24 07:01:00,34.0,31.0,-100.00,ESE,105,7.0,16.0,86,-99.99,,,-99.99,,2013-02-24 16:01:00,
2013-02-24 07:11:00,34.0,31.0,-100.00,ESE,105,7.0,16.0,86,-99.99,,,-99.99,,2013-02-24 16:11:00,
2013-02-24 07:21:00,34.0,31.0,-100.00,ESE,120,7.0,14.0,86,-99.99,,,-99.99,,2013-02-24 16:21:00,
2013-02-24 07:31:00,34.0,31.0,-100.00,ESE,120,7.0,14.0,86,-99.99,,,-99.99,,2013-02-24 16:31:00,
2013-02-24 07:41:00,34.0,31.0,-100.00,ESE,120,7.0,14.0,86,-99.99,,,-99.99,,2013-02-24 16:41:00,
2013-02-24 07:52:00,34.0,31.0,-100.00,ESE,120,8.0,16.0,87,-99.99,,,-99.99,,2013-02-24 16:52:00,
2013-02-24 08:01:00,34.0,31.0,-100.00,ESE,120,8.0,16.0,87,-99.99,,,-99.99,,2013-02-24 17:01:00,
2013-02-24 08:11:00,34.0,31.0,-100.00,ESE,120,8.0,16.0,87,-99.99,,,-99.99,,2013-02-24 17:11:00,
2013-02-24 08:21:00,34.0,30.0,-100.00,ESE,115,6.0,12.0,86,-99.99,,,-99.99,,2013-02-24 17:21:00,
2013-02-24 08:32:00,34.0,30.0,-100.00,ESE,115,6.0,12.0,86,-99.99,,,-99.99,,2013-02-24 17:32:00,
2013-02-24 08:42:00,34.0,30.0,-100.00,ESE,115,6.0,12.0,86,-99.99,,,-99.99,,2013-02-24 17:42:00,
2013-02-24 08:52:00,34.0,30.0,-100.00,ESE,115,6.0,10.0,86,-99.99,,,-99.99,,2013-02-24 17:52:00,
2013-02-24 09:01:00,34.0,30.0,-100.00,ESE,115,6.0,10.0,86,-99.99,,,-99.99,,2013-02-24 18:01:00,
2013-02-24 09:11:00,34.0,30.0,-100.00,ESE,115,6.0,10.0,86,-99.99,,,-99.99,,2013-02-24 18:11:00,
2013-02-24 09:21:00,34.0,30.0,-100.00,ESE,120,6.0,9.0,86,-99.99,,,-99.99,,2013-02-24 18:21:00,
2013-02-24 09:31:00,34.0,30.0,-100.00,ESE,120,6.0,9.0,86,-99.99,,,-99.99,,2013-02-24 18:31:00,
2013-02-24 09:42:00,34.0,30.0,-100.00,ESE,120,6.0,9.0,86,-99.99,,,-99.99,,2013-02-24 18:42:00,
2013-02-24 09:52:00,34.0,31.0,-100.00,ESE,115,6.0,10.0,87,-99.99,,,-99.99,,2013-02-24 18:52:00,
2013-02-24 10:01:00,34.0,31.0,-100.00,ESE,115,6.0,10.0,87,-99.99,,,-99.99,,2013-02-24 19:01:00,
2013-02-24 10:11:00,34.0,31.0,-100.00,ESE,115,6.0,10.0,87,-99.99,,,-99.99,,2013-02-24 19:11:00,
2013-02-24 10:22:00,35.0,31.0,-100.00,ESE,115,4.0,11.0,88,-99.99,,,-99.99,,2013-02-24 19:22:00,
2013-02-24 10:32:00,35.0,31.0,-100.00,ESE,115,4.0,11.0,88,-99.99,,,-99.99,,2013-02-24 19:32:00,
2013-02-24 10:42:00,35.0,31.0,-100.00,ESE,115,4.0,11.0,88,-99.99,,,-99.99,,2013-02-24 19:42:00,
2013-02-24 10:52:00,35.0,32.0,-100.00,East,100,6.0,11.0,88,-99.99,,,-99.99,,2013-02-24 19:52:00,
2013-02-24 11:01:00,35.0,32.0,-100.00,East,100,6.0,11.0,88,-99.99,,,-99.99,,2013-02-24 20:01:00,
2013-02-24 11:11:00,35.0,32.0,-100.00,East,100,6.0,11.0,88,-99.99,,,-99.99,,2013-02-24 20:11:00,
2013-02-24 11:21:00,35.0,32.0,-100.00,ESE,115,4.0,9.0,86,-99.99,,,-99.99,,2013-02-24 20:21:00,
2013-02-24 11:32:00,35.0,32.0,-100.00,ESE,115,4.0,9.0,86,-99.99,,,-99.99,,2013-02-24 20:32:00,
2013-02-24 11:42:00,35.0,32.0,-100.00,ESE,115,4.0,9.0,86,-99.99,,,-99.99,,2013-02-24 20:42:00,
2013-02-24 11:52:00,36.0,32.0,-100.00,ESE,115,6.0,10.0,85,-99.99,,,-99.99,,2013-02-24 20:52:00,
2013-02-24 12:01:00,36.0,32.0,-100.00,ESE,115,6.0,10.0,85,-99.99,,,-99.99,,2013-02-24 21:01:00,
2013-02-24 12:11:00,36.0,32.0,-100.00,ESE,115,6.0,10.0,85,-99.99,,,-99.99,,2013-02-24 21:11:00,
2013-02-24 12:21:00,36.0,31.0,-100.00,ESE,110,4.0,11.0,84,-99.99,,,-99.99,,2013-02-24 21:21:00,
2013-02-24 12:32:00,36.0,31.0,-100.00,ESE,110,4.0,11.0,84,-99.99,,,-99.99,,2013-02-24 21:32:00,
2013-02-24 12:41:00,36.0,31.0,-100.00,ESE,110,4.0,11.0,84,-99.99,,,-99.99,,2013-02-24 21:41:00,
2013-02-24 12:52:00,36.0,31.0,-100.00,ESE,110,4.0,9.0,82,-99.99,,,-99.99,,2013-02-24 21:52:00,
2013-02-24 13:01:00,36.0,31.0,-100.00,ESE,110,4.0,9.0,82,-99.99,,,-99.99,,2013-02-24 22:01:00,
2013-02-24 13:11:00,36.0,31.0,-100.00,ESE,110,4.0,9.0,82,-99.99,,,-99.99,,2013-02-24 22:11:00,
2013-02-24 13:21:00,37.0,32.0,-100.00,ESE,110,4.0,7.0,81,-99.99,,,-99.99,,2013-02-24 22:21:00,
2013-02-24 13:31:00,37.0,32.0,-100.00,ESE,110,4.0,7.0,81,-99.99,,,-99.99,,2013-02-24 22:31:00,
2013-02-24 13:41:00,37.0,32.0,-100.00,ESE,110,4.0,7.0,81,-99.99,,,-99.99,,2013-02-24 22:41:00,
2013-02-24 13:51:00,37.0,31.0,-100.00,ESE,110,4.0,9.0,78,-99.99,,,-99.99,,2013-02-24 22:51:00,
2013-02-24 14:02:00,37.0,31.0,-100.00,ESE,110,4.0,9.0,78,-99.99,,,-99.99,,2013-02-24 23:02:00,
2013-02-24 14:11:00,37.0,31.0,-100.00,ESE,110,4.0,9.0,78,-99.99,,,-99.99,,2013-02-24 23:11:00,
2013-02-24 14:21:00,37.0,31.0,-100.00,ESE,120,3.0,11.0,78,-99.99,,,-99.99,,2013-02-24 23:21:00,
2013-02-24 14:31:00,37.0,31.0,-100.00,ESE,120,3.0,11.0,78,-99.99,,,-99.99,,2013-02-24 23:31:00,
2013-02-24 14:41:00,37.0,31.0,-100.00,ESE,120,3.0,11.0,78,-99.99,,,-99.99,,2013-02-24 23:41:00,
2013-02-24 14:52:00,36.0,31.0,-100.00,ESE,115,4.0,9.0,80,-99.99,,,-99.99,,2013-02-24 23:52:00,
2013-02-24 15:01:00,36.0,31.0,-100.00,ESE,115,4.0,9.0,80,-99.99,,,-99.99,,2013-02-25 00:01:00,
2013-02-24 15:11:00,36.0,31.0,-100.00,ESE,115,4.0,9.0,80,-99.99,,,-99.99,,2013-02-25 00:11:00,
2013-02-24 15:21:00,36.0,31.0,-100.00,ESE,110,4.0,7.0,83,-99.99,,,-99.99,,2013-02-25 00:21:00,
2013-02-24 15:31:00,36.0,31.0,-100.00,ESE,110,4.0,7.0,83,-99.99,,,-99.99,,2013-02-25 00:31:00,
2013-02-24 15:41:00,36.0,31.0,-100.00,ESE,110,4.0,7.0,83,-99.99,,,-99.99,,2013-02-25 00:41:00,
2013-02-24 15:51:00,36.0,32.0,-100.00,SE,130,2.0,4.0,85,-99.99,,,-99.99,,2013-02-25 00:51:00,
2013-02-24 16:01:00,36.0,32.0,-100.00,SE,130,2.0,4.0,85,-99.99,,,-99.99,,2013-02-25 01:01:00,
2013-02-24 16:11:00,36.0,32.0,-100.00,SE,130,2.0,4.0,85,-99.99,,,-99.99,,2013-02-25 01:11:00,
2013-02-24 16:21:00,36.0,32.0,-100.00,ESE,120,1.0,4.0,85,-99.99,,,-99.99,,2013-02-25 01:21:00,
2013-02-24 16:31:00,36.0,32.0,-100.00,ESE,120,1.0,4.0,85,-99.99,,,-99.99,,2013-02-25 01:31:00,
2013-02-24 16:42:00,36.0,32.0,-100.00,ESE,120,1.0,4.0,85,-99.99,,,-99.99,,2013-02-25 01:42:00,
2013-02-24 16:52:00,36.0,32.0,-100.00,ESE,115,2.0,4.0,86,-99.99,,,-99.99,,2013-02-25 01:52:00,
2013-02-24 17:01:00,36.0,32.0,-100.00,ESE,115,2.0,4.0,86,-99.99,,,-99.99,,2013-02-25 02:01:00,
2013-02-24 17:11:00,36.0,32.0,-100.00,ESE,115,2.0,4.0,86,-99.99,,,-99.99,,2013-02-25 02:11:00,
2013-02-24 17:21:00,36.0,32.0,-100.00,NE,55,1.0,4.0,86,-99.99,,,-99.99,,2013-02-25 02:21:00,
2013-02-24 17:31:00,36.0,32.0,-100.00,NE,55,1.0,4.0,86,-99.99,,,-99.99,,2013-02-25 02:31:00,
2013-02-24 17:42:00,36.0,32.0,-100.00,NE,55,1.0,4.0,86,-99.99,,,-99.99,,2013-02-25 02:42:00,
2013-02-24 17:52:00,35.0,31.0,-100.00,ESE,120,3.0,5.0,86,-99.99,,,-99.99,,2013-02-25 02:52:00,
2013-02-24 18:01:00,35.0,31.0,-100.00,ESE,120,3.0,5.0,86,-99.99,,,-99.99,,2013-02-25 03:01:00,
2013-02-24 18:11:00,35.0,31.0,-100.00,ESE,120,3.0,5.0,86,-99.99,,,-99.99,,2013-02-25 03:11:00,
2013-02-24 18:21:00,35.0,30.0,-100.00,ESE,105,3.0,7.0,84,-99.99,,,-99.99,,2013-02-25 03:21:00,
2013-02-24 18:32:00,35.0,30.0,-100.00,ESE,105,3.0,7.0,84,-99.99,,,-99.99,,2013-02-25 03:32:00,
2013-02-24 18:42:00,35.0,30.0,-100.00,ESE,105,3.0,7.0,84,-99.99,,,-99.99,,2013-02-25 03:42:00,
2013-02-24 18:52:00,35.0,30.0,-100.00,ENE,75,0.0,2.0,83,-99.99,,,-99.99,,2013-02-25 03:52:00,
2013-02-24 19:01:00,35.0,30.0,-100.00,ENE,75,0.0,2.0,83,-99.99,,,-99.99,,2013-02-25 04:01:00,
2013-02-24 19:11:00,35.0,30.0,-100.00,ENE,75,0.0,2.0,83,-99.99,,,-99.99,,2013-02-25 04:11:00,
2013-02-24 19:21:00,34.0,30.0,-100.00,WSW,255,0.0,1.0,84,-99.99,,,-99.99,,2013-02-25 04:21:00,
2013-02-24 19:31:00,34.0,30.0,-100.00,WSW,255,0.0,1.0,84,-99.99,,,-99.99,,2013-02-25 04:31:00,
2013-02-24 19:41:00,34.0,30.0,-100.00,WSW,255,0.0,1.0,84,-99.99,,,-99.99,,2013-02-25 04:41:00,
2013-02-24 19:51:00,34.0,30.0,-100.00,SE,145,0.0,2.0,86,-99.99,,,-99.99,,2013-02-25 04:51:00,
2013-02-24 20:01:00,34.0,30.0,-100.00,SE,145,0.0,2.0,86,-99.99,,,-99.99,,2013-02-25 05:01:00,
2013-02-24 20:11:00,34.0,30.0,-100.00,SE,145,0.0,2.0,86,-99.99,,,-99.99,,2013-02-25 05:11:00,
2013-02-24 20:22:00,34.0,30.0,-100.00,SSE,160,0.0,1.0,86,-99.99,,,-99.99,,2013-02-25 05:22:00,
2013-02-24 20:31:00,34.0,30.0,-100.00,SSE,160,0.0,1.0,86,-99.99,,,-99.99,,2013-02-25 05:31:00,
2013-02-24 20:41:00,34.0,30.0,-100.00,SSE,160,0.0,1.0,86,-99.99,,,-99.99,,2013-02-25 05:41:00,
2013-02-24 20:52:00,34.0,30.0,-100.00,SE,130,1.0,2.0,87,-99.99,,,-99.99,,2013-02-25 05:52:00,
2013-02-24 21:02:00,34.0,30.0,-100.00,SE,130,1.0,2.0,87,-99.99,,,-99.99,,2013-02-25 06:02:00,
2013-02-24 21:11:00,34.0,30.0,-100.00,SE,130,1.0,2.0,87,-99.99,,,-99.99,,2013-02-25 06:11:00,
2013-02-24 21:21:00,33.0,30.0,-100.00,SE,130,1.0,4.0,88,-99.99,,,-99.99,,2013-02-25 06:21:00,
2013-02-24 21:31:00,33.0,30.0,-100.00,SE,130,1.0,4.0,88,-99.99,,,-99.99,,2013-02-25 06:31:00,
2013-02-24 21:41:00,33.0,30.0,-100.00,SE,130,1.0,4.0,88,-99.99,,,-99.99,,2013-02-25 06:41:00,
2013-02-24 21:51:00,33.0,30.0,-100.00,SE,145,0.0,2.0,88,-99.99,,,-99.99,,2013-02-25 06:51:00,
2013-02-24 22:01:00,33.0,30.0,-100.00,SE,145,0.0,2.0,88,-99.99,,,-99.99,,2013-02-25 07:01:00,
2013-02-24 22:11:00,33.0,30.0,-100.00,SE,145,0.0,2.0,88,-99.99,,,-99.99,,2013-02-25 07:11:00,
2013-02-24 22:21:00,33.0,30.0,-100.00,ESE,120,1.0,2.0,89,-99.99,,,-99.99,,2013-02-25 07:21:00,
2013-02-24 22:32:00,33.0,30.0,-100.00,ESE,120,1.0,2.0,89,-99.99,,,-99.99,,2013-02-25 07:32:00,
2013-02-24 22:42:00,33.0,30.0,-100.00,ESE,120,1.0,2.0,89,-99.99,,,-99.99,,2013-02-25 07:42:00,
2013-02-24 22:52:00,33.0,30.0,-100.00,ESE,115,1.0,3.0,89,-99.99,,,-99.99,,2013-02-25 07:52:00,
2013-02-24 23:01:00,33.0,30.0,-100.00,ESE,115,1.0,3.0,89,-99.99,,,-99.99,,2013-02-25 08:01:00,
2013-02-24 23:11:00,33.0,30.0,-100.00,ESE,115,1.0,3.0,89,-99.99,,,-99.99,,2013-02-25 08:11:00,
2013-02-24 23:21:00,33.0,30.0,-100.00,SE,130,0.0,2.0,89,-99.99,,,-99.99,,2013-02-25 08:21:00,
2013-02-24 23:32:00,33.0,30.0,-100.00,SE,130,0.0,2.0,89,-99.99,,,-99.99,,2013-02-25 08:32:00,
2013-02-24 23:42:00,33.0,30.0,-100.00,SE,130,0.0,2.0,89,-99.99,,,-99.99,,2013-02-25 08:42:00,
2013-02-24 23:52:00,33.0,31.0,-100.00,SE,130,1.0,5.0,89,-99.99,,,-99.99,,2013-02-25 08:52:00,